GW5864 Weather Reports


time (UTC)temp
F
wind
direction
speed
knots
gust
knots
rain 1hr
in
rain 24hr
in
rain mn
in
humidity
%
barometer
mb
20260510130619 63 334 5.2 7.8 0.00 0.00 0.00 85 1017.7
20260510125620 62 324 1.7 2.6 0.00 0.00 0.00 87 1017.6
20260510124622 61 338 0.9 1.7 0.00 0.00 0.00 88 1017.5
20260510123623 59 327 1.7 2.6 0.00 0.00 0.00 90 1017.4
20260510122624 59 28 2.6 4.3 0.00 0.00 0.00 91 1017.5
20260510121625 58 338 1.7 2.6 0.00 0.00 0.00 92 1017.3
20260510120626 58 0.0 0.0 0.00 0.00 0.00 94 1017.1
20260510115621 57 0.0 0.0 0.00 0.00 0.00 93 1017.1
20260510114616 57 0.0 0.0 0.00 0.00 0.00 94 1017.1
20260510113649 57 0.0 0.0 0.00 0.00 0.00 93 1016.9
20260510112630 57 135 0.9 1.7 0.00 0.00 0.00 94 1016.8
20260510111631 57 135 2.6 2.6 0.00 0.00 0.00 93 1016.7
20260510110653 57 129 1.7 1.7 0.00 0.00 0.00 93 1016.8
20260510105637 57 0.0 0.0 0.00 0.00 0.00 93 1016.7
20260510104617 58 0.0 0.0 0.00 0.00 0.00 92 1016.7
20260510103659 58 0.0 0.0 0.00 0.00 0.00 89 1016.6
20260510102620 58 0.0 0.9 0.00 0.00 0.00 90 1016.5
20260510101621 58 0.0 1.7 0.00 0.00 0.00 87 1016.3
20260510100622 58 298 2.6 3.5 0.00 0.00 0.00 86 1016.0
20260510095624 59 0.0 1.7 0.00 0.00 0.00 87 1015.8
20260510094619 59 0.0 0.0 0.00 0.00 0.00 88 1015.6
20260510093626 59 135 1.7 1.7 0.00 0.00 0.00 88 1015.6
20260510092627 59 120 1.7 1.7 0.00 0.00 0.00 88 1015.6
20260510091629 59 45 0.9 1.7 0.00 0.00 0.00 84 1015.6
20260510090629 59 128 1.7 2.6 0.00 0.00 0.00 83 1016.0
20260510085631 60 301 1.7 2.6 0.00 0.00 0.00 83 1015.9
20260510084652 60 275 1.7 1.7 0.00 0.00 0.00 81 1015.9
20260510083627 59 37 1.7 1.7 0.00 0.00 0.00 82 1015.4
20260510082629 59 11 1.7 2.6 0.00 0.00 0.00 83 1015.6
20260510081650 58 351 2.6 3.5 0.00 0.00 0.00 87 1015.6
20260510080631 58 317 3.5 4.3 0.00 0.00 0.00 89 1015.4
20260510075626 58 26 3.5 5.2 0.00 0.00 0.00 89 1015.3
20260510074616 58 332 2.6 2.6 0.00 0.00 0.00 89 1015.2
20260510073617 58 0.0 0.0 0.00 0.00 0.00 89 1015.1
20260510072619 58 0.0 0.0 0.00 0.00 0.00 87 1014.9
20260510071619 57 45 0.9 1.7 0.00 0.00 0.00 87 1014.9
20260510070620 57 0.0 0.0 0.00 0.00 0.00 88 1014.9
20260510065641 58 90 0.9 0.9 0.00 0.00 0.00 89 1015.1
20260510064622 58 113 1.7 1.7 0.00 0.00 0.00 88 1015.2
20260510063623 58 150 2.6 2.6 0.00 0.00 0.00 85 1015.2
20260510062644 59 0.0 0.0 0.00 0.00 0.00 84 1015.4
20260510061625 59 0.0 0.0 0.00 0.00 0.00 84 1015.2
20260510060626 60 0.0 0.0 0.00 0.00 0.00 81 1015.2
20260510055627 60 0.0 0.0 0.00 0.00 0.00 82 1015.3
20260510054623 60 0.0 0.0 0.00 0.00 0.00 81 1015.4
20260510053619 61 0.0 0.0 0.00 0.00 0.00 79 1015.2
20260510052631 61 0.0 0.0 0.00 0.00 0.00 83 1015.1
20260510051652 61 129 1.7 1.7 0.00 0.00 0.00 78 1015.0
20260510050615 61 0.0 0.0 0.00 0.00 0.00 78 1014.9
20260510045717 62 0.0 0.0 0.00 0.00 0.00 79 1014.8
20260510044618 62 0.0 0.0 0.00 0.00 0.00 76 1014.7
20260510043620 62 0.0 0.0 0.00 0.00 0.00 72 1015.0
20260510042620 62 0.0 0.0 0.00 0.00 0.00 74 1014.7
20260510041622 63 113 0.9 0.9 0.00 0.00 0.00 74 1014.5
20260510040642 62 68 0.9 0.9 0.00 0.00 0.00 74 1014.6
20260510035624 62 0.0 0.0 0.00 0.00 0.00 74 1014.5
20260510034625 62 0.0 0.0 0.00 0.00 0.00 76 1014.3
20260510033620 63 0.0 0.0 0.00 0.00 0.00 79 1014.4
20260510032635 63 0.0 0.0 0.00 0.00 0.00 77 1014.2
20260510031625 63 0.0 0.0 0.00 0.00 0.00 74 1014.0
20260510030624 64 0.0 0.0 0.00 0.00 0.00 71 1013.8
20260510025626 64 0.0 0.0 0.00 0.00 0.00 69 1013.7
20260510024627 64 0.0 0.0 0.00 0.00 0.00 69 1013.7
20260510023629 65 90 0.9 1.7 0.00 0.00 0.00 69 1013.3
20260510022629 65 0.0 0.0 0.00 0.00 0.00 69 1013.1
20260510021650 66 0.0 0.0 0.00 0.00 0.00 68 1012.9
20260510020631 67 90 0.9 0.9 0.00 0.00 0.00 67 1012.5
20260510015633 67 90 1.7 1.7 0.00 0.00 0.00 67 1012.5
20260510014615 68 90 1.7 1.7 0.00 0.00 0.00 67 1012.5
20260510013617 69 97 1.7 1.7 0.00 0.00 0.00 65 1012.3
20260510012617 71 96 1.7 1.7 0.00 0.00 0.00 62 1012.3
20260510011639 73 113 1.7 1.7 0.00 0.00 0.00 57 1012.0
20260510010640 75 128 1.7 1.7 0.00 0.00 0.00 53 1012.0
20260510005701 78 0.0 0.0 0.00 0.00 0.00 46 1011.9
20260510004622 81 0.0 0.0 0.00 0.00 0.00 45 1011.8
20260510003624 84 0.0 0.0 0.00 0.00 0.00 42 1011.6
20260510002625 87 0.0 0.0 0.00 0.00 0.00 39 1011.6
20260510001626 88 0.0 0.0 0.00 0.00 0.00 38 1011.6
20260510000627 88 0.0 0.0 0.00 0.00 0.00 38 1011.8
20260509235628 89 132 0.9 1.7 0.00 0.00 0.00 36 1011.8
20260509234649 91 135 0.0 0.9 0.00 0.00 0.00 34 1011.8
20260509233625 90 158 1.7 2.6 0.00 0.00 0.00 34 1011.6
20260509232620 92 161 1.7 2.6 0.00 0.00 0.00 34 1011.6
20260509231627 92 162 1.7 1.7 0.00 0.00 0.00 34 1011.6
20260509230628 92 214 1.7 1.7 0.00 0.00 0.00 31 1011.5
20260509225629 91 259 0.9 1.7 0.00 0.00 0.00 36 1011.5
20260509224631 86 0.0 0.0 0.00 0.00 0.00 35 1011.5
20260509223633 86 143 1.7 2.6 0.00 0.00 0.00 40 1011.5
20260509222616 85 232 1.7 2.6 0.00 0.00 0.00 37 1011.5
20260509221617 83 98 3.5 4.3 0.00 0.00 0.00 45 1011.5
20260509220618 82 0.0 0.0 0.00 0.00 0.00 49 1011.5
20260509215619 85 142 1.7 2.6 0.00 0.00 0.00 42 1011.6
20260509214620 82 138 2.6 3.5 0.00 0.00 0.00 42 1011.6
20260509213621 86 122 1.7 2.6 0.00 0.00 0.00 36 1011.6
20260509212621 84 68 0.9 2.6 0.00 0.00 0.00 38 1011.6
20260509211617 83 129 1.7 2.6 0.00 0.00 0.00 42 1011.6
20260509210624 82 248 1.7 2.6 0.00 0.00 0.00 44 1011.8
20260509205644 84 168 1.7 2.6 0.00 0.00 0.00 42 1011.8
20260509204620 83 121 2.6 3.5 0.00 0.00 0.00 41 1011.8
20260509203621 80 81 1.7 1.7 0.00 0.00 0.00 45 1012.0
20260509202622 83 341 1.7 2.6 0.00 0.00 0.00 42 1012.1
20260509201625 84 347 2.6 2.6 0.00 0.00 0.00 38 1012.3
20260509200625 81 76 3.5 4.3 0.00 0.00 0.00 42 1012.5
20260509195628 81 165 1.7 1.7 0.00 0.00 0.00 44 1012.5
20260509194626 81 128 2.6 3.5 0.00 0.00 0.00 43 1012.5
20260509193628 81 137 1.7 1.7 0.00 0.00 0.00 45 1012.7
20260509192623 83 305 3.5 3.5 0.00 0.00 0.00 49 1012.8
20260509191618 84 271 2.6 3.5 0.00 0.00 0.00 42 1012.7
20260509190631 81 203 1.7 2.6 0.00 0.00 0.00 45 1012.7
20260509185652 84 321 2.6 4.3 0.00 0.00 0.00 44 1012.7
20260509184636 84 267 2.6 3.5 0.00 0.00 0.00 46 1012.7
20260509183616 84 171 1.7 2.6 0.00 0.00 0.00 44 1012.7
20260509182617 83 202 3.5 4.3 0.00 0.00 0.00 46 1012.8
20260509181631 83 276 3.5 5.2 0.00 0.00 0.00 43 1012.8
20260509180632 83 107 4.3 5.2 0.00 0.00 0.00 46 1012.9
20260509175615 82 261 2.6 5.2 0.00 0.00 0.00 46 1012.9
20260509174636 82 162 1.7 3.5 0.00 0.00 0.00 48 1013.0
20260509173618 83 157 1.7 2.6 0.00 0.00 0.00 48 1013.2
20260509172619 81 270 3.5 3.5 0.00 0.00 0.00 49 1013.2
20260509171640 80 227 2.6 3.5 0.00 0.00 0.00 52 1013.2
20260509170633 80 338 1.7 3.5 0.00 0.00 0.00 54 1013.4
20260509165616 80 239 3.5 4.3 0.00 0.00 0.00 57 1013.4
20260509164617 79 140 2.6 3.5 0.00 0.00 0.00 57 1013.4
20260509163618 78 253 3.5 4.3 0.00 0.00 0.00 60 1013.4
20260509162619 77 247 2.6 3.5 0.00 0.00 0.00 64 1013.5
20260509161620 76 260 2.6 2.6 0.00 0.00 0.00 61 1013.4
20260509160621 76 239 2.6 2.6 0.00 0.00 0.00 65 1013.3
20260509155637 75 231 2.6 4.3 0.00 0.00 0.00 66 1013.4
20260509154618 74 277 1.7 3.5 0.00 0.00 0.00 70 1013.5
20260509153619 73 245 2.6 3.5 0.00 0.00 0.00 71 1013.3
20260509152621 72 288 1.7 2.6 0.00 0.00 0.00 73 1013.3
20260509151622 70 283 1.7 2.6 0.00 0.00 0.00 74 1013.4
20260509150617 70 213 2.6 3.5 0.00 0.00 0.00 77 1013.5
20260509145624 69 294 2.6 2.6 0.00 0.00 0.00 77 1013.5
20260509144625 69 278 2.6 2.6 0.00 0.00 0.00 78 1013.6
20260509143626 68 255 2.6 3.5 0.00 0.00 0.00 79 1013.4
20260509142647 71 243 1.7 2.6 0.00 0.00 0.00 72 1013.4
20260509141625 71 203 1.7 3.5 0.00 0.00 0.00 72 1013.4
20260509140644 70 248 1.7 2.6 0.00 0.00 0.00 74 1013.3
20260509135625 68 224 1.7 2.6 0.00 0.00 0.00 78 1013.3
20260509134626 68 253 2.6 3.5 0.00 0.00 0.00 77 1013.4
20260509133628 67 206 1.7 2.6 0.00 0.00 0.00 78 1013.3
20260509132629 67 259 1.7 3.5 0.00 0.00 0.00 79 1013.0
20260509131624 65 209 1.7 2.6 0.00 0.00 0.00 85 1013.1